AFL1344 UZTT-ULLI

Flight info

Callsign AFL1344
Flight time N/A
Altitude 36000
Route DODUR L163 UNITO/K0880F380 L163 SIVKO M166 URL M161 DENUD T784 ROKUR P164 PINOK N50 GENPA GENPA1V
Aircraft B77W/H-SDE1E2E3FGHIJ2J3J4J5M1RWXY/LB1D1

Departure

Time 2026-05-06 10:00
Airport Tashkent International Airport (UZTT)

Arrival

Time N/A
Airport Pulkovo Airport (ULLI)
Time Latitude Longitude Altitude Speed Heading
2026-05-06 09:36 41.26096 69.26710 1417 ft 0 kts 314°
2026-05-06 09:47 41.26095 69.26712 1418 ft 0 kts 314°
2026-05-06 09:47 41.26093 69.26714 1419 ft 0 kts 314°
2026-05-06 09:49 41.26087 69.26722 1418 ft 2 kts 314°
2026-05-06 09:49 41.26063 69.26754 1421 ft 7 kts 318°
2026-05-06 09:49 41.26021 69.26775 1420 ft 4 kts 24°
2026-05-06 09:50 41.26005 69.26755 1417 ft 0 kts 64°
2026-05-06 09:53 41.26005 69.26756 1412 ft 1 kts 65°
2026-05-06 09:53 41.26012 69.26776 1419 ft 4 kts 65°
2026-05-06 09:53 41.26031 69.26832 1415 ft 9 kts 66°
2026-05-06 09:54 41.26060 69.26921 1420 ft 12 kts 67°
2026-05-06 09:54 41.26097 69.27041 1418 ft 16 kts 67°
2026-05-06 09:54 41.26104 69.27186 1415 ft 17 kts 116°
2026-05-06 09:54 41.26020 69.27291 1419 ft 17 kts 140°
2026-05-06 09:55 41.25941 69.27385 1416 ft 0 kts 138°
2026-05-06 09:55 41.25940 69.27386 1415 ft 1 kts 138°
2026-05-06 09:55 41.25932 69.27395 1420 ft 2 kts 139°
2026-05-06 09:56 41.25908 69.27423 1421 ft 8 kts 140°
2026-05-06 09:56 41.25848 69.27490 1419 ft 15 kts 139°
2026-05-06 09:56 41.25785 69.27627 1418 ft 21 kts 97°
2026-05-06 09:56 41.25800 69.27845 1420 ft 27 kts 82°
2026-05-06 09:57 41.25829 69.28129 1421 ft 34 kts 82°
2026-05-06 09:57 41.25868 69.28476 1420 ft 41 kts 81°
2026-05-06 09:57 41.25911 69.28877 1418 ft 44 kts 82°
2026-05-06 09:57 41.25951 69.29259 1419 ft 40 kts 82°
2026-05-06 09:58 41.25983 69.29534 1424 ft 18 kts 66°
2026-05-06 09:58 41.26004 69.29565 1422 ft 0 kts 34°
2026-05-06 09:58 41.25992 69.29567 1423 ft 0 kts 257°
2026-05-06 09:58 41.25992 69.29566 1422 ft 0 kts 257°
2026-05-06 09:59 41.25993 69.29544 1421 ft 7 kts 273°
2026-05-06 09:59 41.25987 69.29420 1419 ft 22 kts 263°
2026-05-06 09:59 41.25941 69.28973 1418 ft 95 kts 262°
2026-05-06 09:59 41.25789 69.27717 1428 ft 177 kts 260°
2026-05-06 10:00 41.25588 69.25870 1791 ft 215 kts 261°
2026-05-06 10:00 41.25350 69.23867 2795 ft 226 kts 261°
2026-05-06 10:00 41.25100 69.21762 3659 ft 238 kts 262°
2026-05-06 10:00 41.24832 69.19460 3966 ft 264 kts 262°
2026-05-06 10:01 41.24546 69.17016 4728 ft 269 kts 261°
2026-05-06 10:01 41.24255 69.14540 5513 ft 274 kts 261°
2026-05-06 10:01 41.24009 69.12004 6261 ft 278 kts 271°
2026-05-06 10:01 41.24483 69.09529 6950 ft 279 kts 300°
2026-05-06 10:02 41.25510 69.07329 7706 ft 282 kts 302°
2026-05-06 10:02 41.26562 69.05111 8524 ft 284 kts 301°
2026-05-06 10:02 41.27614 69.02875 9357 ft 287 kts 301°
2026-05-06 10:02 41.28678 69.00619 10170 ft 290 kts 301°
2026-05-06 10:03 41.29771 68.98304 10627 ft 305 kts 301°
2026-05-06 10:03 41.30948 68.95806 10818 ft 331 kts 301°
2026-05-06 10:03 41.32134 68.93280 10986 ft 354 kts 301°
2026-05-06 10:03 41.33416 68.90542 11326 ft 371 kts 301°
2026-05-06 10:04 41.34783 68.87616 12008 ft 378 kts 301°
2026-05-06 10:04 41.36180 68.84625 12772 ft 383 kts 301°
2026-05-06 10:04 41.37595 68.81599 13511 ft 386 kts 303°
2026-05-06 10:04 41.39341 68.78859 14023 ft 393 kts 322°
2026-05-06 10:05 41.41591 68.76794 14530 ft 395 kts 325°
2026-05-06 10:05 41.43754 68.74505 15143 ft 399 kts 319°
2026-05-06 10:05 41.45851 68.72062 15939 ft 400 kts 319°
2026-05-06 10:05 41.47946 68.69614 16710 ft 401 kts 319°
2026-05-06 10:06 41.50058 68.67155 17419 ft 405 kts 319°
2026-05-06 10:06 41.52197 68.64676 18097 ft 409 kts 319°
2026-05-06 10:06 41.54358 68.62181 18714 ft 412 kts 319°
2026-05-06 10:06 41.56542 68.59664 19326 ft 415 kts 319°
2026-05-06 10:07 41.58732 68.57142 19954 ft 418 kts 319°
2026-05-06 10:07 41.60945 68.54593 20583 ft 421 kts 319°
2026-05-06 10:07 41.63144 68.52058 21177 ft 424 kts 319°
2026-05-06 10:07 41.65385 68.49474 21754 ft 427 kts 319°
2026-05-06 10:08 41.67643 68.46867 22315 ft 431 kts 319°
2026-05-06 10:08 41.69919 68.44235 22878 ft 434 kts 318°
2026-05-06 10:08 41.72221 68.41570 23425 ft 438 kts 318°
2026-05-06 10:08 41.74526 68.38899 23914 ft 441 kts 318°
2026-05-06 10:09 41.76856 68.36198 24393 ft 443 kts 318°
2026-05-06 10:09 41.79191 68.33488 24891 ft 445 kts 318°
2026-05-06 10:09 41.81538 68.30761 25379 ft 447 kts 318°
2026-05-06 10:09 41.83889 68.28027 25864 ft 449 kts 318°
2026-05-06 10:10 41.86257 68.25270 26320 ft 451 kts 318°
2026-05-06 10:10 41.88629 68.22506 26761 ft 454 kts 318°
2026-05-06 10:10 41.91022 68.19714 27194 ft 456 kts 318°
2026-05-06 10:10 41.93394 68.16942 27622 ft 458 kts 318°
2026-05-06 10:11 41.95803 68.14127 28032 ft 461 kts 318°
2026-05-06 10:11 41.98221 68.11297 28454 ft 463 kts 318°
2026-05-06 10:11 42.00657 68.08443 28842 ft 464 kts 318°
2026-05-06 10:11 42.03097 68.05582 29211 ft 466 kts 318°
2026-05-06 10:12 42.05544 68.02708 29547 ft 468 kts 318°
2026-05-06 10:12 42.08006 67.99816 29957 ft 468 kts 318°
2026-05-06 10:12 42.10453 67.96937 30383 ft 466 kts 318°
2026-05-06 10:12 42.12886 67.94070 30848 ft 463 kts 318°
2026-05-06 10:13 42.15313 67.91209 31290 ft 461 kts 318°
2026-05-06 10:13 42.17719 67.88370 31679 ft 460 kts 317°
2026-05-06 10:13 42.20125 67.85528 32059 ft 458 kts 317°
2026-05-06 10:13 42.22525 67.82688 32441 ft 457 kts 317°
2026-05-06 10:14 42.24906 67.79869 32811 ft 455 kts 317°
2026-05-06 10:14 42.27288 67.77047 33178 ft 454 kts 317°
2026-05-06 10:14 42.29631 67.74266 33524 ft 453 kts 317°
2026-05-06 10:14 42.32021 67.71427 33873 ft 451 kts 317°
2026-05-06 10:15 42.34347 67.68661 34190 ft 450 kts 317°
2026-05-06 10:15 42.36692 67.65870 34418 ft 450 kts 317°
2026-05-06 10:15 42.39047 67.63064 34604 ft 451 kts 317°
2026-05-06 10:15 42.41404 67.60252 34827 ft 451 kts 317°
2026-05-06 10:16 42.43753 67.57448 35025 ft 451 kts 317°
2026-05-06 10:16 42.46100 67.54643 35248 ft 450 kts 317°
2026-05-06 10:16 42.48454 67.51826 35441 ft 451 kts 317°
2026-05-06 10:16 42.50800 67.49015 35634 ft 451 kts 317°
2026-05-06 10:17 42.53145 67.46204 35830 ft 451 kts 317°
2026-05-06 10:17 42.55504 67.43373 35906 ft 453 kts 317°
2026-05-06 10:17 42.59967 67.37338 35980 ft 453 kts 311°
2026-05-06 10:18 42.64180 67.31029 35979 ft 449 kts 311°
2026-05-06 10:18 42.68368 67.24750 35971 ft 447 kts 311°
2026-05-06 10:19 42.72261 67.18939 35982 ft 446 kts 311°
2026-05-06 10:19 42.76394 67.12772 35976 ft 447 kts 311°
2026-05-06 10:20 42.80563 67.06538 35968 ft 448 kts 311°
2026-05-06 10:20 42.84766 67.00241 35963 ft 450 kts 310°
2026-05-06 10:21 42.88975 66.93917 35965 ft 451 kts 310°
2026-05-06 10:21 42.93206 66.87547 35970 ft 452 kts 310°
2026-05-06 10:22 42.97428 66.81178 35970 ft 453 kts 310°
2026-05-06 10:22 43.01658 66.74781 35965 ft 453 kts 310°
2026-05-06 10:23 43.05876 66.68379 35969 ft 453 kts 310°
2026-05-06 10:23 43.10089 66.61967 35959 ft 452 kts 310°
2026-05-06 10:24 43.14282 66.55572 35965 ft 451 kts 310°
2026-05-06 10:24 43.18474 66.49167 35961 ft 451 kts 310°
2026-05-06 10:25 43.22653 66.42768 35960 ft 450 kts 310°
2026-05-06 10:25 43.26805 66.36403 35957 ft 450 kts 310°
2026-05-06 10:26 43.30981 66.29986 35959 ft 450 kts 310°
2026-05-06 10:26 43.35152 66.23562 35955 ft 450 kts 310°
2026-05-06 10:27 43.39327 66.17115 35961 ft 451 kts 309°
2026-05-06 10:27 43.43489 66.10674 35954 ft 451 kts 309°
2026-05-06 10:28 43.47654 66.04215 35957 ft 451 kts 309°
2026-05-06 10:28 43.51787 65.97791 35955 ft 451 kts 309°
2026-05-06 10:29 43.55945 65.91313 35954 ft 451 kts 309°
2026-05-06 10:29 43.60098 65.84828 35953 ft 451 kts 309°
2026-05-06 10:30 43.64245 65.78338 35953 ft 450 kts 309°
2026-05-06 10:30 43.68385 65.71844 35946 ft 450 kts 309°
2026-05-06 10:31 43.72511 65.65358 35945 ft 449 kts 309°
2026-05-06 10:31 43.76641 65.58850 35946 ft 449 kts 309°
2026-05-06 10:32 43.80754 65.52356 35953 ft 449 kts 308°
2026-05-06 10:32 43.84868 65.45844 35948 ft 449 kts 308°
2026-05-06 10:33 43.88279 65.40434 35940 ft 449 kts 308°
2026-05-06 10:33 43.92385 65.33907 35940 ft 449 kts 308°
2026-05-06 10:34 43.96488 65.27370 35947 ft 449 kts 308°
2026-05-06 10:34 44.00559 65.20869 35942 ft 449 kts 308°
2026-05-06 10:35 44.04652 65.14318 35946 ft 449 kts 308°
2026-05-06 10:35 44.08741 65.07759 35941 ft 449 kts 308°
2026-05-06 10:36 44.12829 65.01186 35945 ft 449 kts 308°
2026-05-06 10:36 44.16913 64.94604 35846 ft 448 kts 307°
2026-05-06 10:37 44.20993 64.88014 35932 ft 448 kts 307°
2026-05-06 10:37 44.25069 64.81413 35954 ft 450 kts 307°
2026-05-06 10:38 44.29152 64.74775 35938 ft 452 kts 307°
2026-05-06 10:38 44.33231 64.68125 35936 ft 454 kts 307°
2026-05-06 10:39 44.37342 64.61410 35940 ft 455 kts 306°
2026-05-06 10:39 44.41467 64.54675 35939 ft 457 kts 306°
2026-05-06 10:40 44.45607 64.47901 35933 ft 458 kts 306°
2026-05-06 10:40 44.49728 64.41133 35937 ft 459 kts 306°
2026-05-06 10:41 44.53873 64.34309 35937 ft 459 kts 306°
2026-05-06 10:41 44.58008 64.27482 35937 ft 460 kts 306°
2026-05-06 10:42 44.62147 64.20634 35938 ft 460 kts 306°
2026-05-06 10:42 44.66289 64.13766 35936 ft 461 kts 305°
2026-05-06 10:43 44.70426 64.06888 35935 ft 461 kts 305°
2026-05-06 10:44 44.76647 63.96513 35933 ft 462 kts 305°
2026-05-06 10:44 44.80790 63.89584 35936 ft 463 kts 305°
2026-05-06 10:45 44.84910 63.82675 35928 ft 464 kts 304°
2026-05-06 10:45 44.89058 63.75702 35933 ft 464 kts 304°
2026-05-06 10:46 44.93217 63.68694 35929 ft 465 kts 304°
2026-05-06 10:46 44.97364 63.61688 35931 ft 465 kts 304°
2026-05-06 10:47 45.01514 63.54661 35926 ft 466 kts 304°
2026-05-06 10:47 45.05656 63.47630 35921 ft 465 kts 304°
2026-05-06 10:48 45.09793 63.40591 35930 ft 465 kts 304°
2026-05-06 10:48 45.13930 63.33531 35927 ft 465 kts 304°
2026-05-06 10:49 45.18037 63.26504 35913 ft 465 kts 304°
2026-05-06 10:49 45.22155 63.19441 35917 ft 465 kts 304°
2026-05-06 10:50 45.26296 63.12319 35920 ft 465 kts 304°
2026-05-06 10:50 45.30385 63.05270 35918 ft 465 kts 304°
2026-05-06 10:51 45.34520 62.98124 35917 ft 465 kts 304°
2026-05-06 10:51 45.38599 62.91056 35917 ft 466 kts 304°
2026-05-06 10:52 45.42715 62.83907 35914 ft 466 kts 303°
2026-05-06 10:52 45.46822 62.76755 35918 ft 466 kts 303°
2026-05-06 10:53 45.50925 62.69591 35916 ft 466 kts 303°
2026-05-06 10:53 45.55030 62.62407 35911 ft 466 kts 303°
2026-05-06 10:54 45.59117 62.55235 35910 ft 466 kts 303°
2026-05-06 10:54 45.63178 62.48091 35911 ft 466 kts 303°
2026-05-06 10:55 45.67257 62.40895 35909 ft 465 kts 303°
2026-05-06 10:55 45.71332 62.33689 35910 ft 465 kts 303°
2026-05-06 10:56 45.75394 62.26487 35910 ft 465 kts 303°
2026-05-06 10:56 45.79454 62.19270 35907 ft 465 kts 303°
2026-05-06 10:57 45.83548 62.12067 35907 ft 467 kts 306°
2026-05-06 10:57 45.88082 62.05318 35912 ft 470 kts 309°
2026-05-06 10:58 45.92655 61.98677 35911 ft 471 kts 308°
2026-05-06 10:58 45.97235 61.91953 35901 ft 471 kts 308°
2026-05-06 10:59 46.01796 61.85200 35918 ft 471 kts 308°
2026-05-06 10:59 46.06360 61.78418 35914 ft 472 kts 308°
2026-05-06 11:00 46.10932 61.71613 35910 ft 472 kts 308°
2026-05-06 11:00 46.15499 61.64800 35914 ft 472 kts 308°
2026-05-06 11:01 46.20041 61.57996 35913 ft 473 kts 308°
2026-05-06 11:01 46.24591 61.51155 35913 ft 472 kts 308°
2026-05-06 11:02 46.29140 61.44299 35912 ft 472 kts 308°
2026-05-06 11:02 46.33677 61.37444 35918 ft 472 kts 308°
2026-05-06 11:03 46.38218 61.30565 35903 ft 472 kts 308°
2026-05-06 11:03 46.42752 61.23681 35907 ft 472 kts 308°
2026-05-06 11:04 46.47271 61.16800 35917 ft 471 kts 308°
2026-05-06 11:04 46.51791 61.09900 35923 ft 471 kts 308°
2026-05-06 11:05 46.56310 61.02983 35922 ft 472 kts 308°
2026-05-06 11:05 46.60821 60.96062 35925 ft 472 kts 308°
2026-05-06 11:06 46.65329 60.89128 35928 ft 472 kts 308°
2026-05-06 11:06 46.69818 60.82204 35928 ft 473 kts 308°
2026-05-06 11:07 46.74327 60.75230 35922 ft 473 kts 308°
2026-05-06 11:07 46.78845 60.68226 35924 ft 474 kts 308°
2026-05-06 11:08 46.83359 60.61207 35918 ft 474 kts 307°
2026-05-06 11:08 46.87846 60.54215 35919 ft 474 kts 307°
2026-05-06 11:09 46.92383 60.47125 35921 ft 475 kts 307°
2026-05-06 11:09 46.96861 60.40109 35918 ft 474 kts 307°
2026-05-06 11:10 47.01363 60.33037 35912 ft 474 kts 307°
2026-05-06 11:10 47.05857 60.25958 35913 ft 474 kts 307°
2026-05-06 11:11 47.10339 60.18880 35917 ft 473 kts 306°
2026-05-06 11:11 47.14817 60.11788 35903 ft 473 kts 306°
2026-05-06 11:12 47.19281 60.04701 35900 ft 472 kts 306°
2026-05-06 11:12 47.23738 59.97604 35901 ft 472 kts 306°
2026-05-06 11:13 47.28173 59.90524 35946 ft 464 kts 308°
2026-05-06 11:13 47.32499 59.83610 35901 ft 455 kts 308°
2026-05-06 11:14 47.36761 59.76766 35900 ft 457 kts 308°
2026-05-06 11:14 47.41073 59.69823 35893 ft 460 kts 308°
2026-05-06 11:15 47.45405 59.62834 35892 ft 462 kts 308°
2026-05-06 11:15 47.49750 59.55806 35881 ft 464 kts 308°
2026-05-06 11:16 47.54111 59.48735 35877 ft 465 kts 308°
2026-05-06 11:16 47.58474 59.41642 35869 ft 466 kts 308°
2026-05-06 11:17 47.62831 59.34539 35865 ft 466 kts 308°
2026-05-06 11:17 47.67193 59.27409 35866 ft 466 kts 308°
2026-05-06 11:18 47.71521 59.20316 35864 ft 466 kts 308°
2026-05-06 11:18 47.75860 59.13187 35862 ft 465 kts 307°
2026-05-06 11:19 47.80204 59.06029 35861 ft 465 kts 307°
2026-05-06 11:19 47.84527 58.98887 35862 ft 465 kts 307°
2026-05-06 11:20 47.88852 58.91722 35829 ft 465 kts 304°
2026-05-06 11:20 47.92469 58.85709 35864 ft 470 kts 305°
2026-05-06 11:21 47.96864 58.78382 35870 ft 476 kts 305°
2026-05-06 11:21 48.02039 58.69738 35868 ft 479 kts 305°
2026-05-06 11:22 48.05729 58.63563 35863 ft 480 kts 305°
2026-05-06 11:22 48.10171 58.56110 35846 ft 479 kts 305°
2026-05-06 11:23 48.14596 58.48663 35847 ft 477 kts 304°
2026-05-06 11:23 48.18985 58.41252 35854 ft 475 kts 304°
2026-05-06 11:24 48.23337 58.33880 35854 ft 474 kts 304°
2026-05-06 11:24 48.27704 58.26464 35850 ft 474 kts 304°
2026-05-06 11:25 48.32055 58.19053 35854 ft 473 kts 304°
2026-05-06 11:25 48.36420 58.11598 35855 ft 474 kts 304°
2026-05-06 11:26 48.40768 58.04149 35855 ft 475 kts 304°
2026-05-06 11:26 48.45131 57.96657 35852 ft 476 kts 304°
2026-05-06 11:27 48.49493 57.89144 35853 ft 477 kts 304°
2026-05-06 11:27 48.53837 57.81642 35850 ft 478 kts 304°
2026-05-06 11:28 48.58213 57.74061 35846 ft 478 kts 305°
2026-05-06 11:28 48.62586 57.66465 35851 ft 479 kts 305°
2026-05-06 11:29 48.66958 57.58850 35842 ft 480 kts 305°
2026-05-06 11:29 48.71334 57.51204 35822 ft 480 kts 305°
2026-05-06 11:30 48.75703 57.43549 35830 ft 480 kts 305°
2026-05-06 11:30 48.80069 57.35877 35827 ft 481 kts 305°
2026-05-06 11:31 48.84407 57.28232 35832 ft 481 kts 305°
2026-05-06 11:31 48.88768 57.20523 35831 ft 481 kts 305°
2026-05-06 11:32 48.93124 57.12802 35829 ft 481 kts 305°
2026-05-06 11:32 48.97478 57.05061 35828 ft 481 kts 304°
2026-05-06 11:33 49.01828 56.97305 35830 ft 481 kts 304°
2026-05-06 11:33 49.06166 56.89547 35823 ft 481 kts 304°
2026-05-06 11:34 49.10508 56.81760 35824 ft 481 kts 304°
2026-05-06 11:34 49.14841 56.73964 35815 ft 481 kts 304°
2026-05-06 11:35 49.19161 56.66169 35817 ft 481 kts 304°
2026-05-06 11:35 49.23478 56.58358 35819 ft 481 kts 304°
2026-05-06 11:36 49.27797 56.50517 35817 ft 481 kts 304°
2026-05-06 11:36 49.32110 56.42665 35811 ft 482 kts 304°
2026-05-06 11:37 49.36392 56.34846 35812 ft 482 kts 305°
2026-05-06 11:37 49.40697 56.26963 35816 ft 482 kts 305°
2026-05-06 11:38 49.45008 56.19044 35810 ft 483 kts 305°
2026-05-06 11:38 49.49315 56.11109 35812 ft 483 kts 305°
2026-05-06 11:39 49.53628 56.03138 35815 ft 484 kts 305°
2026-05-06 11:39 49.57928 55.95168 35810 ft 484 kts 305°
2026-05-06 11:40 49.62228 55.87172 35806 ft 485 kts 305°
2026-05-06 11:40 49.66504 55.79199 35813 ft 485 kts 305°
2026-05-06 11:41 49.70793 55.71174 35810 ft 485 kts 305°
2026-05-06 11:41 49.75093 55.63108 35810 ft 485 kts 305°
2026-05-06 11:42 49.79379 55.55040 35817 ft 485 kts 306°
2026-05-06 11:42 49.83660 55.46958 35817 ft 486 kts 306°
2026-05-06 11:43 49.87946 55.38841 35800 ft 486 kts 306°
2026-05-06 11:43 49.92216 55.30729 35820 ft 485 kts 306°
2026-05-06 11:44 49.98616 55.18523 35806 ft 486 kts 306°
2026-05-06 11:44 50.02876 55.10368 35830 ft 486 kts 306°
2026-05-06 11:45 50.07124 55.02209 35813 ft 486 kts 306°
2026-05-06 11:45 50.11351 54.94066 35815 ft 486 kts 306°
2026-05-06 11:46 50.15595 54.85864 35815 ft 486 kts 306°
2026-05-06 11:46 50.19841 54.77633 35812 ft 486 kts 306°
2026-05-06 11:47 50.24068 54.69412 35816 ft 486 kts 306°
2026-05-06 11:47 50.28296 54.61166 35814 ft 485 kts 306°
2026-05-06 11:48 50.31994 54.52399 35813 ft 481 kts 294°
2026-05-06 11:48 50.34802 54.42933 35822 ft 479 kts 292°
2026-05-06 11:49 50.37530 54.33408 35818 ft 479 kts 292°
2026-05-06 11:49 50.40281 54.23887 35812 ft 479 kts 292°
2026-05-06 11:50 50.43025 54.14442 35813 ft 479 kts 292°
2026-05-06 11:50 50.45789 54.04917 35814 ft 480 kts 292°
2026-05-06 11:51 50.48547 53.95370 35811 ft 480 kts 292°
2026-05-06 11:51 50.51297 53.85809 35814 ft 481 kts 292°
2026-05-06 11:52 50.54044 53.76221 35812 ft 481 kts 292°
2026-05-06 11:52 50.56783 53.66619 35814 ft 481 kts 292°
2026-05-06 11:53 50.59518 53.56993 35818 ft 482 kts 292°
2026-05-06 11:53 50.62247 53.47349 35822 ft 482 kts 292°
2026-05-06 11:54 50.64969 53.37693 35821 ft 483 kts 292°
2026-05-06 11:54 50.67687 53.28009 35818 ft 483 kts 292°
2026-05-06 11:55 50.70401 53.18298 35825 ft 484 kts 291°
2026-05-06 11:55 50.73091 53.08634 35826 ft 484 kts 291°
2026-05-06 11:56 50.75796 52.98877 35824 ft 485 kts 291°
2026-05-06 11:56 50.78495 52.89098 35831 ft 485 kts 291°
2026-05-06 11:57 50.81185 52.79314 35833 ft 486 kts 291°
2026-05-06 11:57 50.83876 52.69484 35837 ft 486 kts 291°
2026-05-06 11:58 50.86555 52.59660 35840 ft 487 kts 291°
2026-05-06 11:58 50.89248 52.49808 35838 ft 487 kts 292°
2026-05-06 11:59 50.91942 52.39974 35843 ft 487 kts 292°
2026-05-06 11:59 50.94617 52.30160 35844 ft 488 kts 292°
2026-05-06 12:00 50.97298 52.20270 35847 ft 488 kts 292°
2026-05-06 12:00 50.99965 52.10389 35851 ft 487 kts 292°
2026-05-06 12:01 51.02624 52.00498 35842 ft 487 kts 292°
2026-05-06 12:01 51.05272 51.90598 35845 ft 486 kts 292°
2026-05-06 12:02 51.07915 51.80680 35843 ft 485 kts 292°
2026-05-06 12:02 51.10537 51.70796 35831 ft 485 kts 292°
2026-05-06 12:03 51.13169 51.60964 35831 ft 485 kts 296°
2026-05-06 12:03 51.14919 51.56389 35828 ft 484 kts 307°
2026-05-06 12:03 51.17134 51.52347 35829 ft 484 kts 316°
2026-05-06 12:04 51.22530 51.45951 35837 ft 483 kts 327°
2026-05-06 12:04 51.28189 51.40174 35832 ft 483 kts 327°
2026-05-06 12:05 51.33800 51.34296 35840 ft 482 kts 326°
2026-05-06 12:05 51.39336 51.28379 35841 ft 481 kts 326°
2026-05-06 12:06 51.44895 51.22426 35846 ft 479 kts 326°
2026-05-06 12:06 51.50456 51.16545 35850 ft 479 kts 326°
2026-05-06 12:07 51.56026 51.10677 35846 ft 478 kts 326°
2026-05-06 12:07 51.61581 51.04790 35855 ft 479 kts 326°
2026-05-06 12:08 51.67339 50.99403 35857 ft 479 kts 335°
2026-05-06 12:08 51.73600 50.95801 35861 ft 479 kts 345°
2026-05-06 12:09 51.78988 50.93593 35863 ft 480 kts 346°
2026-05-06 12:09 51.85465 50.90907 35863 ft 480 kts 345°
2026-05-06 12:10 51.91882 50.87896 35858 ft 480 kts 338°
2026-05-06 12:10 51.97727 50.82714 35872 ft 479 kts 323°
2026-05-06 12:11 52.02789 50.75785 35873 ft 479 kts 318°
2026-05-06 12:11 52.07761 50.68579 35868 ft 479 kts 318°
2026-05-06 12:12 52.12756 50.61404 35871 ft 479 kts 318°
2026-05-06 12:12 52.17772 50.54257 35868 ft 479 kts 318°
2026-05-06 12:13 52.22758 50.47151 35875 ft 478 kts 318°
2026-05-06 12:13 52.27760 50.39993 35871 ft 478 kts 318°
2026-05-06 12:14 52.32743 50.32840 35874 ft 477 kts 318°
2026-05-06 12:14 52.37725 50.25663 35869 ft 476 kts 318°
2026-05-06 12:15 52.42688 50.18491 35875 ft 475 kts 318°
2026-05-06 12:15 52.47633 50.11322 35876 ft 474 kts 318°
2026-05-06 12:16 52.52567 50.04149 35880 ft 474 kts 317°
2026-05-06 12:16 52.56995 49.96203 35880 ft 472 kts 306°
2026-05-06 12:17 52.60414 49.87173 35879 ft 470 kts 298°
2026-05-06 12:17 52.63486 49.77684 35877 ft 470 kts 297°
2026-05-06 12:18 52.66566 49.68150 35880 ft 470 kts 297°
2026-05-06 12:18 52.69657 49.58660 35877 ft 470 kts 297°
2026-05-06 12:19 52.72753 49.49157 35880 ft 470 kts 297°
2026-05-06 12:19 52.75840 49.39656 35878 ft 470 kts 297°
2026-05-06 12:20 52.78925 49.30114 35876 ft 470 kts 297°
2026-05-06 12:20 52.81999 49.20570 35877 ft 470 kts 297°
2026-05-06 12:21 52.85073 49.10986 35888 ft 475 kts 297°
2026-05-06 12:21 52.88404 49.01396 35882 ft 485 kts 304°
2026-05-06 12:22 52.92633 48.92664 35874 ft 493 kts 310°
2026-05-06 12:22 52.97129 48.84022 35885 ft 498 kts 310°
2026-05-06 12:23 53.01659 48.75237 35876 ft 502 kts 309°
2026-05-06 12:23 53.06169 48.66364 35881 ft 503 kts 309°
2026-05-06 12:24 53.10662 48.57453 35876 ft 502 kts 309°
2026-05-06 12:24 53.15125 48.48570 35875 ft 499 kts 309°
2026-05-06 12:25 53.19568 48.39701 35874 ft 497 kts 309°
2026-05-06 12:25 53.23982 48.30861 35877 ft 494 kts 309°
2026-05-06 12:26 53.28350 48.22084 35878 ft 493 kts 309°
2026-05-06 12:26 53.32722 48.13266 35877 ft 492 kts 309°
2026-05-06 12:27 53.37082 48.04442 35885 ft 491 kts 309°
2026-05-06 12:27 53.41388 47.95695 35800 ft 478 kts 309°
2026-05-06 12:28 53.45523 47.87267 35658 ft 458 kts 309°
2026-05-06 12:28 53.49456 47.79226 35529 ft 440 kts 309°
2026-05-06 12:29 53.53009 47.71939 35396 ft 424 kts 309°
2026-05-06 12:29 53.56668 47.64411 35253 ft 407 kts 309°
2026-05-06 12:30 53.58447 47.60741 35122 ft 401 kts 309°
2026-05-06 12:30 53.60199 47.57124 34929 ft 396 kts 309°
2026-05-06 12:30 53.61928 47.53548 34667 ft 393 kts 308°
2026-05-06 12:30 53.63658 47.49964 34379 ft 391 kts 309°
2026-05-06 12:31 53.65344 47.46466 34118 ft 388 kts 309°
2026-05-06 12:31 53.67042 47.42941 33880 ft 385 kts 309°
2026-05-06 12:31 53.68722 47.39446 33575 ft 383 kts 308°
2026-05-06 12:31 53.70396 47.35958 33259 ft 381 kts 308°
2026-05-06 12:32 53.72061 47.32485 32937 ft 379 kts 308°
2026-05-06 12:32 53.73705 47.29055 32430 ft 372 kts 308°
2026-05-06 12:32 53.75181 47.25497 31620 ft 368 kts 299°
2026-05-06 12:32 53.76549 47.21842 30773 ft 368 kts 309°
2026-05-06 12:33 53.78398 47.18873 30041 ft 366 kts 324°
2026-05-06 12:33 53.80580 47.16686 29322 ft 361 kts 328°
2026-05-06 12:33 53.82683 47.14430 28660 ft 355 kts 324°
2026-05-06 12:33 53.84681 47.12025 28013 ft 349 kts 322°
2026-05-06 12:34 53.86614 47.09609 27390 ft 343 kts 322°
2026-05-06 12:34 53.88443 47.07305 26818 ft 342 kts 322°
2026-05-06 12:34 53.90356 47.04897 26556 ft 340 kts 322°
2026-05-06 12:34 53.92231 47.02544 26502 ft 331 kts 322°
2026-05-06 12:35 53.94074 47.00240 26348 ft 327 kts 322°
2026-05-06 12:35 53.95900 46.97960 26084 ft 326 kts 322°
2026-05-06 12:35 53.97722 46.95685 25820 ft 324 kts 322°
2026-05-06 12:35 53.99537 46.93421 25591 ft 322 kts 322°
2026-05-06 12:36 54.01335 46.91178 25372 ft 320 kts 322°
2026-05-06 12:36 54.03119 46.88952 25253 ft 314 kts 322°
2026-05-06 12:36 54.04869 46.86765 25117 ft 311 kts 322°
2026-05-06 12:36 54.06608 46.84591 24883 ft 310 kts 322°
2026-05-06 12:37 54.08330 46.82436 24451 ft 305 kts 322°
2026-05-06 12:37 54.10043 46.80289 23787 ft 308 kts 322°
2026-05-06 12:37 54.11773 46.78118 23080 ft 310 kts 322°
2026-05-06 12:37 54.13513 46.75932 22375 ft 310 kts 322°
2026-05-06 12:38 54.15249 46.73750 21693 ft 310 kts 322°
2026-05-06 12:38 54.16968 46.71588 21016 ft 311 kts 322°
2026-05-06 12:38 54.18714 46.69390 20326 ft 312 kts 323°
2026-05-06 12:38 54.20457 46.67192 19670 ft 313 kts 323°
2026-05-06 12:39 54.22210 46.64980 19045 ft 312 kts 323°
2026-05-06 12:39 54.23951 46.62782 18449 ft 311 kts 323°
2026-05-06 12:39 54.25693 46.60579 17775 ft 311 kts 323°
2026-05-06 12:39 54.27437 46.58371 17021 ft 312 kts 322°
2026-05-06 12:40 54.29188 46.56151 16268 ft 314 kts 322°
2026-05-06 12:40 54.30943 46.53923 15519 ft 315 kts 322°
2026-05-06 12:40 54.32706 46.51683 14776 ft 316 kts 322°
2026-05-06 12:40 54.34472 46.49436 14043 ft 316 kts 322°
2026-05-06 12:41 54.36241 46.47184 13263 ft 318 kts 322°
2026-05-06 12:41 54.38023 46.44911 12417 ft 319 kts 322°
2026-05-06 12:41 54.39787 46.42662 11600 ft 320 kts 322°
2026-05-06 12:41 54.41573 46.40381 10869 ft 319 kts 322°
2026-05-06 12:42 54.43338 46.38129 10333 ft 312 kts 322°
2026-05-06 12:42 54.45070 46.35915 9627 ft 311 kts 321°
2026-05-06 12:42 54.46809 46.33685 8774 ft 313 kts 321°
2026-05-06 12:42 54.48558 46.31438 7942 ft 315 kts 321°
2026-05-06 12:43 54.50324 46.29166 7114 ft 317 kts 321°
2026-05-06 12:43 54.52093 46.26892 6374 ft 316 kts 321°
2026-05-06 12:43 54.53861 46.24614 6157 ft 319 kts 321°
2026-05-06 12:43 54.55655 46.22295 5965 ft 320 kts 321°
2026-05-06 12:44 54.57444 46.19999 5850 ft 322 kts 321°
2026-05-06 12:44 54.59267 46.17640 6350 ft 333 kts 321°
2026-05-06 12:44 54.61108 46.15249 7345 ft 330 kts 321°
2026-05-06 12:44 54.62957 46.12861 7855 ft 331 kts 321°
2026-05-06 12:45 54.64802 46.10482 7860 ft 330 kts 321°
2026-05-06 12:45 54.66629 46.08120 7837 ft 327 kts 321°
2026-05-06 12:45 54.70215 46.03457 7787 ft 323 kts 321°
2026-05-06 12:46 54.72011 46.01106 7742 ft 322 kts 321°
2026-05-06 12:46 54.73793 45.98783 7744 ft 320 kts 321°
2026-05-06 12:46 54.75573 45.96461 7746 ft 320 kts 321°
2026-05-06 12:46 54.77346 45.94139 7735 ft 320 kts 321°
2026-05-06 12:47 54.79134 45.91808 7741 ft 321 kts 321°
2026-05-06 12:47 54.80920 45.89479 7732 ft 322 kts 321°
2026-05-06 12:47 54.82708 45.87135 7742 ft 323 kts 321°
2026-05-06 12:47 54.84505 45.84777 7739 ft 325 kts 321°
2026-05-06 12:48 54.86311 45.82406 7739 ft 325 kts 320°
2026-05-06 12:48 54.88113 45.80031 7732 ft 326 kts 320°
2026-05-06 12:48 54.89896 45.77679 7735 ft 325 kts 320°
2026-05-06 12:48 54.91697 45.75304 7744 ft 325 kts 320°
2026-05-06 12:49 54.93502 45.72923 7745 ft 325 kts 320°
2026-05-06 12:49 54.95297 45.70543 7728 ft 325 kts 320°
2026-05-06 12:49 54.97101 45.68164 7732 ft 324 kts 320°
2026-05-06 12:49 54.98904 45.65779 7729 ft 324 kts 320°
2026-05-06 12:50 55.00679 45.63426 7740 ft 325 kts 320°
2026-05-06 12:50 55.02486 45.61025 7726 ft 325 kts 320°
2026-05-06 12:50 55.04287 45.58630 7726 ft 324 kts 320°
2026-05-06 12:50 55.06055 45.56282 7722 ft 324 kts 320°
2026-05-06 12:51 55.07846 45.53901 7726 ft 322 kts 320°
2026-05-06 12:51 55.09636 45.51511 7733 ft 322 kts 320°
2026-05-06 12:51 55.11424 45.49124 7722 ft 323 kts 320°
2026-05-06 12:51 55.13184 45.46771 7726 ft 322 kts 320°
2026-05-06 12:52 55.14954 45.44397 7720 ft 321 kts 320°
2026-05-06 12:52 55.16731 45.42020 7727 ft 320 kts 320°
2026-05-06 12:52 55.18503 45.39646 7725 ft 321 kts 320°
2026-05-06 12:52 55.20276 45.37255 7721 ft 321 kts 320°
2026-05-06 12:53 55.22048 45.34873 7727 ft 321 kts 320°
2026-05-06 12:53 55.23823 45.32481 7726 ft 321 kts 320°
2026-05-06 12:53 55.25591 45.30094 7719 ft 322 kts 320°
2026-05-06 12:53 55.27375 45.27690 7723 ft 322 kts 320°
2026-05-06 12:54 55.29110 45.25272 7710 ft 321 kts 316°
2026-05-06 12:54 55.30704 45.22556 7722 ft 319 kts 311°
2026-05-06 12:54 55.32188 45.19680 7709 ft 319 kts 309°
2026-05-06 12:54 55.33650 45.16732 7717 ft 319 kts 308°
2026-05-06 12:55 55.35102 45.13773 7711 ft 319 kts 308°
2026-05-06 12:55 55.36547 45.10833 7713 ft 318 kts 309°
2026-05-06 12:55 55.37996 45.07887 7708 ft 317 kts 308°
2026-05-06 12:55 55.39441 45.04960 7713 ft 316 kts 308°
2026-05-06 12:56 55.40882 45.02047 7716 ft 316 kts 309°
2026-05-06 12:56 55.42325 44.99130 7717 ft 317 kts 309°
2026-05-06 12:56 55.43782 44.96188 7714 ft 318 kts 308°
2026-05-06 12:56 55.45216 44.93283 7716 ft 317 kts 309°
2026-05-06 12:57 55.46670 44.90342 7714 ft 317 kts 309°
2026-05-06 12:57 55.48122 44.87412 7712 ft 317 kts 308°
2026-05-06 12:57 55.49564 44.84475 7692 ft 318 kts 308°
2026-05-06 12:57 55.51045 44.81469 7740 ft 335 kts 308°
2026-05-06 12:58 55.52650 44.78198 7792 ft 371 kts 308°
2026-05-06 12:58 55.54404 44.74613 7961 ft 391 kts 309°
2026-05-06 12:58 55.56182 44.70992 8568 ft 387 kts 308°
2026-05-06 12:58 55.57334 44.68659 9101 ft 371 kts 308°
2026-05-06 12:59 55.59006 44.65269 9270 ft 368 kts 308°
2026-05-06 12:59 55.61273 44.60614 9230 ft 385 kts 308°
2026-05-06 12:59 55.62442 44.58173 9127 ft 381 kts 307°
2026-05-06 12:59 55.64158 44.54583 8329 ft 384 kts 308°
2026-05-06 13:00 55.65886 44.51054 7881 ft 379 kts 309°
2026-05-06 13:00 55.67588 44.47594 7759 ft 354 kts 309°
2026-05-06 13:00 55.69126 44.44473 7473 ft 320 kts 308°
2026-05-06 13:00 55.70521 44.41624 7255 ft 290 kts 308°
2026-05-06 13:01 55.71704 44.38955 7083 ft 262 kts 295°
2026-05-06 13:01 55.72290 44.36071 6915 ft 236 kts 283°
2026-05-06 13:01 55.72704 44.33384 6734 ft 216 kts 284°
2026-05-06 13:01 55.73078 44.30919 6358 ft 204 kts 283°
2026-05-06 13:02 55.73437 44.28506 5869 ft 200 kts 283°
2026-05-06 13:02 55.73789 44.26125 5297 ft 200 kts 283°
2026-05-06 13:02 55.74146 44.23743 4729 ft 199 kts 283°
2026-05-06 13:02 55.74504 44.21368 4153 ft 199 kts 283°
2026-05-06 13:03 55.74853 44.19005 3667 ft 198 kts 283°
2026-05-06 13:03 55.75205 44.16661 3239 ft 195 kts 283°
2026-05-06 13:03 55.75549 44.14379 3000 ft 187 kts 283°
2026-05-06 13:03 55.75892 44.12093 2981 ft 195 kts 283°
2026-05-06 13:04 55.76240 44.09738 3039 ft 200 kts 284°
2026-05-06 13:04 55.76588 44.07371 2994 ft 197 kts 283°
2026-05-06 13:04 55.76934 44.05058 2966 ft 189 kts 285°
2026-05-06 13:04 55.77686 44.03160 3062 ft 216 kts 319°
2026-05-06 13:05 55.79010 44.01845 3021 ft 214 kts 329°
2026-05-06 13:05 55.80299 44.00712 2979 ft 196 kts 328°
2026-05-06 13:05 55.81434 43.99636 2968 ft 180 kts 326°
2026-05-06 13:05 55.82516 43.98531 2973 ft 182 kts 325°
2026-05-06 13:06 55.83600 43.97355 2976 ft 181 kts 324°
2026-05-06 13:06 55.84654 43.96170 2985 ft 178 kts 323°
2026-05-06 13:06 55.85696 43.94985 3028 ft 178 kts 322°
2026-05-06 13:06 55.86742 43.93750 2973 ft 179 kts 321°
2026-05-06 13:07 55.87761 43.92497 2991 ft 178 kts 320°
2026-05-06 13:07 55.88772 43.91197 2973 ft 180 kts 320°
2026-05-06 13:07 55.89787 43.89927 2990 ft 178 kts 320°
2026-05-06 13:07 55.90799 43.88654 3026 ft 179 kts 320°
2026-05-06 13:08 55.91812 43.87365 2996 ft 177 kts 319°
2026-05-06 13:08 55.92810 43.86088 2987 ft 176 kts 318°
2026-05-06 13:08 55.93802 43.84812 3026 ft 179 kts 319°
2026-05-06 13:08 55.94832 43.83488 3039 ft 181 kts 319°
2026-05-06 13:09 55.95866 43.82153 2980 ft 182 kts 319°
2026-05-06 13:09 55.96859 43.80869 2969 ft 176 kts 319°
2026-05-06 13:09 55.97842 43.79595 2983 ft 175 kts 319°
2026-05-06 13:09 55.98840 43.78298 2976 ft 171 kts 319°
2026-05-06 13:10 55.99755 43.77115 2972 ft 159 kts 318°
2026-05-06 13:10 56.00625 43.75984 2975 ft 153 kts 319°
2026-05-06 13:10 56.01496 43.74848 2995 ft 157 kts 319°
2026-05-06 13:10 56.02384 43.73690 3012 ft 160 kts 319°
2026-05-06 13:11 56.03319 43.72579 2975 ft 161 kts 334°
2026-05-06 13:11 56.04404 43.72194 3048 ft 163 kts 348°
2026-05-06 13:11 56.05541 43.72362 3034 ft 160 kts
2026-05-06 13:11 56.06656 43.72689 3001 ft 165 kts
2026-05-06 13:12 56.07816 43.73071 2900 ft 177 kts
2026-05-06 13:12 56.09007 43.73495 2686 ft 172 kts
2026-05-06 13:12 56.10141 43.73907 2473 ft 161 kts
2026-05-06 13:12 56.11242 43.74306 2296 ft 161 kts
2026-05-06 13:13 56.12327 43.74699 2077 ft 158 kts
2026-05-06 13:13 56.13429 43.75095 1887 ft 165 kts
2026-05-06 13:13 56.14537 43.75502 1644 ft 160 kts
2026-05-06 13:13 56.15632 43.75900 1462 ft 163 kts
2026-05-06 13:14 56.16724 43.76298 1265 ft 156 kts
2026-05-06 13:14 56.17752 43.76675 1024 ft 146 kts
2026-05-06 13:14 56.18755 43.77034 881 ft 150 kts
2026-05-06 13:14 56.19768 43.77410 626 ft 144 kts
2026-05-06 13:15 56.20717 43.77747 469 ft 139 kts
2026-05-06 13:15 56.21680 43.78105 295 ft 141 kts
2026-05-06 13:15 56.22413 43.78370 271 ft 60 kts 12°
2026-05-06 13:15 56.22611 43.78449 269 ft 33 kts 11°
2026-05-06 13:16 56.22825 43.78522 271 ft 30 kts